This is the latest recevied weather packets stored in our database for station/object AB8Y-13. If no packets are shown the sender has not sent any weather packets the latest 10 day(s).
| Time | Temp. | Humidity | Pressure | Rain* | Wind** | Luminosity | Snow |
|---|---|---|---|---|---|---|---|
| 1777059344 | 26.67° C | 49% | 1004 hPa | 0 mm | - | 582 W/m² | - |
| 1777059040 | 26.67° C | 47% | 1004.1 hPa | 0 mm | - | 235 W/m² | - |
| 1777058739 | 26.67° C | 46% | 1004.2 hPa | 0 mm | - | 205 W/m² | - |
| 1777058435 | 27.78° C | 44% | 1004.2 hPa | 0 mm | - | 234 W/m² | - |
| 1777058133 | 27.78° C | 46% | 1004.1 hPa | 0 mm | - | 665 W/m² | - |
| 1777057832 | 26.67° C | 46% | 1004.5 hPa | 0 mm | - | 939 W/m² | - |
| 1777057528 | 27.22° C | 46% | 1004.3 hPa | 0 mm | - | 206 W/m² | - |
| 1777057224 | 27.78° C | 45% | 1004.4 hPa | 0 mm | - | 751 W/m² | - |
| 1777056920 | 27.22° C | 45% | 1004 hPa | 0 mm | - | 824 W/m² | - |
| 1777056618 | 26.67° C | 46% | 1004.5 hPa | 0 mm | - | 859 W/m² | - |
| 1777056314 | 27.22° C | 46% | 1004.6 hPa | 0 mm | - | 369 W/m² | - |
| 1777056011 | 27.22° C | 46% | 1004.7 hPa | 0 mm | - | 329 W/m² | - |
| 1777055708 | 27.22° C | 45% | 1004.9 hPa | 0 mm | - | 555 W/m² | - |
| 1777055403 | 27.22° C | 46% | 1005 hPa | 0 mm | - | 304 W/m² | - |
| 1777055096 | 27.22° C | 47% | 1004.9 hPa | 0 mm | - | 638 W/m² | - |
| 1777054792 | 27.78° C | 43% | 1005.1 hPa | 0 mm | - | 350 W/m² | - |
| 1777054489 | 27.22° C | 47% | 1005.4 hPa | 0 mm | - | 936 W/m² | - |
| 1777054187 | 27.22° C | 46% | 1005.3 hPa | 0 mm | - | 456 W/m² | - |
| 1777053884 | 27.78° C | 44% | 1005.4 hPa | 0 mm | - | 393 W/m² | - |
| 1777053579 | 27.78° C | 45% | 1005.4 hPa | 0 mm | - | 621 W/m² | - |
| 1777053274 | 27.22° C | 46% | 1005.4 hPa | 0 mm | - | 548 W/m² | - |
| 1777052971 | 27.22° C | 47% | 1005.6 hPa | 0 mm | - | 796 W/m² | - |
| 1777052667 | 27.22° C | 50% | 1005.6 hPa | 0 mm | - | 754 W/m² | - |
| 1777052366 | 27.22° C | 47% | 1005.7 hPa | 0 mm | - | 757 W/m² | - |
| 1777052064 | 27.22° C | 48% | 1005.3 hPa | 0 mm | - | 850 W/m² | - |
* Rain latest hour (hover to see other rain measurements)
** Current wind speed in m/s (hover to see current wind gust speed)